Location: Campolattaro
(41.2833°N, 14.7333°E)
Time: 05:53:24
(UTC+00:00)

Cosmos 2344 - Pass Details

Date: 19 May 2025
Orbit: 1200 x 3042 km, 63.3° (Epoch: 14 June)

Event Time Altitude Azimuth Distance (km) Brightness Sun altitude
Rises 19:09:20 0° 228° (SW) 4,551 6.6 -9.1°
Reaches altitude 10° 19:12:30 10° 233° (SW) 3,412 6.0 -9.6°
Maximum altitude 19:20:08 56° 311° (NW) 1,429 4.3 -10.7°
Drops below altitude 10° 19:27:15 10° 29° (NNE) 3,177 5.8 -11.8°
Sets 19:30:06 0° 34° (NE) 4,214 6.4 -12.2°
